Weather History for Porterville, CA

Change the Weather History Date:

Wednesday, January 8, 2014

  Actual Average Record
Temperature  
Mean Temperature - -  
Max Temperature - 55 °F 69 °F (2004)
Min Temperature - 35 °F 24 °F (1950)
Moisture  
Dew Point -    
Average Humidity    
Maximum Humidity    
Minimum Humidity    
Precipitation  
Precipitation 0.00 in - - ()
Sea Level Pressure  
Sea Level Pressure 30.16 in    
Wind  
Wind Speed 4 mph (SE)    
Max Wind Speed 12 mph    
Max Gust Speed -    
Visibility 5 miles    
Events      
Averages and records for this station are not official NWS values.
T = Trace of Precipitation, MM = Missing Value Source: NWS Daily Summary

Daily Weather History Graph

Daily Weather History Graph

Search for Another Location

Airport:

Trip Planner

Search our weather history database for the weather conditions in past years. The results will help you decide how hot, cold, wet, or windy it might be!

Date:

Astronomy

Jan. 08, 2014 Rise Set
Actual Time 7:07 AM PST 4:58 PM PST
Civil Twilight 6:39 AM PST 5:27 PM PST
Nautical Twilight 6:07 AM PST 5:59 PM PST
Astronomical Twilight 5:36 AM PST 6:30 PM PST
Moon 11:48 AM PST (1/8) 12:24 AM PST (1/8)
Length of Visible Light 10h 48m
Length of Day
9h 51m
First Quarter, 57% of the Moon is Illuminated
Jan 8
First Quarter
Jan 15
Full
Jan 23
Last Quarter
Jan 30
New
Feb 6
First Quarter

Hourly Weather History & Observations

Time (PST) Temp. Dew Point Humidity Pressure Visibility Wind Dir Wind Speed Gust Speed Precip Events Conditions
12:15 AM - - N/A% 30.15 in 7.0 mi East 5.8 mph - N/A   Clear
12:35 AM - - N/A% 30.15 in 7.0 mi East 4.6 mph - N/A   Clear
12:55 AM - - N/A% 30.15 in 7.0 mi ESE 3.5 mph - N/A   Clear
1:15 AM - - N/A% 30.15 in 8.0 mi SE 5.8 mph - N/A   Clear
1:35 AM - - N/A% 30.16 in 8.0 mi SSE 3.5 mph - N/A   Clear
1:55 AM - - N/A% 30.16 in 9.0 mi East 4.6 mph - N/A   Clear
2:15 AM - - N/A% 30.16 in 10.0 mi East 4.6 mph - N/A   Clear
2:35 AM - - N/A% 30.15 in 9.0 mi East 3.5 mph - N/A   Clear
2:55 AM - - N/A% 30.15 in 8.0 mi Calm Calm - N/A   Clear
3:15 AM - - N/A% 30.15 in 5.0 mi SSW 5.8 mph - N/A   Clear
3:35 AM - - N/A% 30.15 in 4.0 mi South 4.6 mph - N/A   Clear
3:55 AM - - N/A% 30.16 in 5.0 mi South 5.8 mph - N/A   Clear
4:15 AM - - N/A% 30.17 in 5.0 mi Calm Calm - N/A   Clear
4:35 AM - - N/A% 30.16 in 5.0 mi East 4.6 mph - N/A   Clear
4:55 AM - - N/A% 30.16 in 5.0 mi East 5.8 mph - N/A   Clear
5:15 AM - - N/A% 30.15 in 5.0 mi ESE 4.6 mph - N/A   Clear
5:35 AM - - N/A% 30.15 in 5.0 mi East 4.6 mph - N/A   Clear
5:55 AM - - N/A% 30.15 in 5.0 mi East 6.9 mph - N/A   Clear
6:15 AM - - N/A% 30.15 in 5.0 mi East 4.6 mph - N/A   Clear
6:35 AM - - N/A% 30.16 in 5.0 mi East 4.6 mph - N/A   Clear
6:55 AM - - N/A% 30.17 in 7.0 mi Calm Calm - N/A   Clear
7:15 AM - - N/A% 30.18 in 5.0 mi Calm Calm - N/A   Clear
7:35 AM - - N/A% 30.19 in 5.0 mi East 5.8 mph - N/A   Clear
7:55 AM - - N/A% 30.19 in 6.0 mi ESE 5.8 mph - N/A   Clear
8:15 AM - - N/A% 30.20 in 8.0 mi ESE 5.8 mph - N/A   Clear
8:35 AM - - N/A% 30.22 in 7.0 mi SE 6.9 mph - N/A   Clear
8:55 AM - - N/A% 30.23 in 8.0 mi ESE 4.6 mph - N/A   Clear
9:15 AM - - N/A% 30.24 in 8.0 mi Calm Calm - N/A   Clear
9:35 AM - - N/A% 30.24 in 8.0 mi ESE 3.5 mph - N/A   Clear
9:55 AM - - N/A% 30.23 in 6.0 mi South 3.5 mph - N/A   Clear
10:15 AM - - N/A% 30.22 in 6.0 mi South 5.8 mph - N/A   Clear
10:35 AM - - N/A% 30.20 in 5.0 mi South 8.1 mph - N/A   Clear
10:55 AM - - N/A% 30.19 in 5.0 mi SW 10.4 mph - N/A   Clear
11:15 AM - - N/A% 30.18 in 4.0 mi WSW 10.4 mph - N/A   Clear
11:35 AM - - N/A% 30.18 in 4.0 mi West 11.5 mph - N/A   Clear
11:55 AM - - N/A% 30.17 in 4.0 mi WNW 6.9 mph - N/A   Clear
12:15 PM - - N/A% 30.16 in 4.0 mi Calm Calm - N/A   Clear
12:35 PM - - N/A% 30.14 in 4.0 mi Calm Calm - N/A   Clear
12:55 PM - - N/A% 30.14 in 4.0 mi Calm Calm - N/A   Clear
1:15 PM - - N/A% 30.13 in 4.0 mi NNW 3.5 mph - N/A   Clear
1:35 PM - - N/A% 30.12 in 3.0 mi SW 4.6 mph - N/A   Clear
1:55 PM - - N/A% 30.13 in 3.0 mi Calm Calm - N/A   Clear
2:15 PM - - N/A% 30.13 in 3.0 mi NW 8.1 mph - N/A   Clear
2:35 PM - - N/A% 30.14 in 3.0 mi NW 9.2 mph - N/A   Clear
2:55 PM - - N/A% 30.14 in 3.0 mi WNW 9.2 mph - N/A   Clear
3:15 PM - - N/A% 30.13 in 4.0 mi WNW 5.8 mph - N/A   Clear
3:35 PM - - N/A% 30.13 in 4.0 mi NW 5.8 mph - N/A   Clear
3:55 PM - - N/A% 30.13 in 4.0 mi NNW 5.8 mph - N/A   Clear
4:15 PM - - N/A% 30.13 in 4.0 mi NNW 6.9 mph - N/A   Clear
4:35 PM - - N/A% 30.12 in 5.0 mi Calm Calm - N/A   Clear
4:55 PM - - N/A% 30.13 in 4.0 mi Calm Calm - N/A   Clear
5:15 PM - - N/A% 30.13 in 4.0 mi NNW 3.5 mph - N/A   Clear
5:35 PM - - N/A% 30.14 in 5.0 mi NNW 3.5 mph - N/A   Clear
5:55 PM - - N/A% 30.14 in 5.0 mi Calm Calm - N/A   Clear
6:15 PM - - N/A% 30.14 in 5.0 mi Calm Calm - N/A   Clear
6:35 PM - - N/A% 30.15 in 5.0 mi North 6.9 mph - N/A   Clear
6:55 PM - - N/A% 30.15 in 5.0 mi Calm Calm - N/A   Clear
7:15 PM - - N/A% 30.16 in 5.0 mi Calm Calm - N/A   Clear
7:35 PM - - N/A% 30.16 in 5.0 mi SSE 3.5 mph - N/A   Clear
7:55 PM - - N/A% 30.16 in 5.0 mi SSE 3.5 mph - N/A   Clear
8:15 PM - - N/A% 30.16 in 5.0 mi SSE 4.6 mph - N/A   Clear
8:35 PM - - N/A% 30.15 in 4.0 mi SE 4.6 mph - N/A   Clear
8:55 PM - - N/A% 30.17 in 4.0 mi SE 4.6 mph - N/A   Clear
9:15 PM - - N/A% 30.18 in 4.0 mi SE 3.5 mph - N/A   Clear
9:35 PM - - N/A% 30.19 in 4.0 mi Calm Calm - N/A   Clear
9:55 PM - - N/A% 30.20 in 4.0 mi East 4.6 mph - N/A   Clear
10:15 PM - - N/A% 30.20 in 4.0 mi Calm Calm - N/A   Clear
10:35 PM - - N/A% 30.19 in 3.0 mi East 5.8 mph - N/A   Clear
10:55 PM - - N/A% 30.20 in 4.0 mi ESE 5.8 mph - N/A   Clear
11:15 PM - - N/A% 30.19 in 3.0 mi SE 3.5 mph - N/A   Clear
11:35 PM - - N/A% 30.18 in 4.0 mi SE 5.8 mph - N/A   Clear
11:55 PM - - N/A% 30.18 in 3.0 mi ESE 5.8 mph - N/A   Clear